STARLINK-2510, 48329

Orbit data source: Space-Track

STARLINK-2510, 48329 is a payload satellite owned by SpaceX/Seattle (US) in LEO that was launched on Thu, 29 Apr 2021 UTC via an FALCON 9 launch vehicle from the Air Force Eastern Test Range (AFETR). Payload-class satellites include a variety of spacecraft equipped with specific instruments for various scientific and technological missions. These include communications satellites like Starlink; space stations such as the ISS; scientific satellites like the Hubble; Earth observation satellites from companies like Planet Labs, Umbra, and HawkEye 360; GPS; miniature CubeSats for education and research; and military/defense satellites.

Loading next visibility...
Identifier
48329, 2021-036BF
Orbit
LEO
Country
Flag of USUS
Related business
Manufacturer
SpaceX/Seattle
Mission
Operational Commercial Communications
Bus & Motor
STARLINK, Unknown motor
Mass
260 kg wet, ~248 kg dry
Launch date (UTC)
2021-04-29 (5 years ago)
Launch vehicle
FALCON 9
Launch site
Air Force Eastern Test Range (AFETR)
Object type
Payload
Rocket body
Debris
Shape & HBR
Box + 1 Pan, 10.1 m
Radar Cross Section
13.562 m², Large (>1 m²)

Expand to show TLE details & history
Last TLE update: 21 hours ago

TLE from 21 hours ago
0 STARLINK-2510
1 48329U 21036BF  26036.77228151  .00005366  00000-0  37914-3 0  9995
2 48329  53.0555 244.9038 0001416  78.0799 282.0348 15.06372246263221
Epoch: 2026-02-05T18:32Z
TLE epoch observation values (Epoch: 2026-02-05T18:32:05.122Z)
Latitude
-0.00008°
Longitude
-169.03731°
Altitude
547.972 km
Speed
7.589 km/s
True Right ascension
16h 19m 36s
True Declination
0° 00' 00"
Sunlit
Object was in daylight at epoch
Visualization orbit readout
Latitude
Unknown
Longitude
Unknown
Altitude
Unknown
Speed
Unknown
Apparent Right ascension
Unknown
Apparent Declination
Unknown
Sunlit
N/A
Visualization observer readout
Local Sidereal Time
18:03:59
Azimuth
Unknown
Elevation
Unknown
Doppler factor
Unknown
Orbital elements
Apogee altitude
548.548 km
Perigee altitude
546.586 km
Semi-major axis
6,925.704 km
Eccentricity
0.00014
Inclination
53.0555°
RAAN
244.9038°
Arg. of periapsis
78.0799°
True anomaly
282.01893°
Mean anomaly
282.0348°
Eccentric anomaly
282.02686°
Mean motion
3.76571 °/min
Orbital period
95.6 mins
BSTAR
0.00037914
Loading maneuver chart data...
Computing Atmospheric mass density...
Loading historical data...
Loading historical data...
Loading historical data...
Loading historical data...
Loading historical data...
Loading historical data...
Loading historical data...

Documentation

Showing up to 5 results
|